Showing default

OPS 7218 (TRANSIT 16), 2807

Orbit data source: Space-Track

OPS 7218 (TRANSIT 16), 2807 is a payload satellite owned by USN NAVAIR (US) in LEO that was launched on Thu, 18 May 1967 UTC via an SCOUT A launch vehicle from the Air Force Western Test Range (AFWTR). Payload-class satellites include a variety of spacecraft equipped with specific instruments for various scientific and technological missions. These include communications satellites like Starlink; space stations such as the ISS; scientific satellites like the Hubble; Earth observation satellites from companies like Planet Labs, Umbra, and HawkEye 360; GPS; miniature CubeSats for education and research; and military/defense satellites.

Loading next visibility...
Identifier
2807, 1967-048A
Orbit
LEO
Country
Flag of USUS
Related business
Manufacturer
APL
Mission
Defense Navigation
Bus & Motor
TRANSIT 5, Unknown motor
Mass
~50 kg wet, ~50 kg dry
Launch date (UTC)
1967-05-18 (58 years ago)
Launch vehicle
SCOUT A
Launch site
Air Force Western Test Range (AFWTR)
Object type
Payload
Rocket body
Debris
Shape & HBR
Oct Cyl + 4 Pan + 1 Rod, Unknown HBR
Radar Cross Section
7.565 m², Large (>1 m²)

Expand to show TLE details & history
Last TLE update: 17 hours ago

TLE from 17 hours ago
0 OPS 7218 (TRANSIT 16)
1 02807U 67048A   25258.51224265  .00000092  00000-0  12766-3 0  9997
2 02807  89.6820 356.8960 0020367  17.0742 354.8168 13.50694956870859
Epoch: 2025-09-15T12:17Z
TLE epoch observation values (Epoch: 2025-09-15T12:17:37.764Z)
Latitude
11.82512°
Longitude
177.83905°
Altitude
1,056.792 km
Speed
7.332 km/s
True Right ascension
23h 47m 50s
True Declination
11° 45' 33"
Sunlit
Object was in full shadow at epoch
Visualization orbit readout
Latitude
Unknown
Longitude
Unknown
Altitude
Unknown
Speed
Unknown
Apparent Right ascension
Unknown
Apparent Declination
Unknown
Sunlit
N/A
Visualization observer readout
Local Sidereal Time
21:29:31
Azimuth
Unknown
Elevation
Unknown
Doppler factor
Unknown
Orbital elements
Apogee altitude
1,081.915 km
Perigee altitude
1,051.589 km
Semi-major axis
7,444.889 km
Eccentricity
0.00204
Inclination
89.682°
RAAN
356.896°
Arg. of periapsis
17.0742°
True anomaly
354.79566°
Mean anomaly
354.8168°
Eccentric anomaly
354.80624°
Mean motion
3.37875 °/min
Orbital period
106.55 mins
BSTAR
0.00012766
Loading maneuver chart data...
Computing Atmospheric mass density...
Loading historical data...
Loading historical data...
Loading historical data...
Loading historical data...
Loading historical data...
Loading historical data...
Loading historical data...

Documentation

Showing up to 5 results
|